Regional Weather Roundup
Issued by NWS

Home | Current Version | Previous Version | Text Only | Print | Product List | Glossary On
Versions: 1 2 3 4 5 6 7 8 9 10 11 12 13 14 15 16 17 18 19 20 21 22 23 24 25 26 27 28 29 30 31 32 33 34 35 36 37 38 39 40 41 42 43 44 45 46 47 48 49 50
000
ASUS44 KLIX 260211
RWRLA
LOUISIANA WEATHER ROUNDUP
NATIONAL WEATHER SERVICE NEW ORLEANS LA
900 PM CDT SUN SEP 25 2016

NOTE: "FAIR" INDICATES FEW OR NO CLOUDS BELOW 12,000 FEET WITH NO
      SIGNIFICANT WEATHER AND/OR OBSTRUCTIONS TO VISIBILITY.
      SKY/WX - SKY CONDITION AND SIGNIFICANT WEATHER.
      TMP - AIR TEMPERATURE.    DP   - DEWPOINT TEMPERATURE.
      RH  - RELATIVE HUMIDITY.  PRES - PRESSURE.
      HX  - HEAT INDEX.         WCI  - WIND CHILL INDEX.

*  THESE STATIONS ARE NOT NWS OR FAA STATIONS AND ARE NOT UNDER
   NWS QUALITY CONTROL.

LAZ040-048-061>063-065-066-069-260300-
SOUTHEAST LOUISIANA

CITY           SKY/WX    TMP DP  RH WIND       PRES   REMARKS
N.O. AUDUBON     N/A     84  73  69 MISG        N/A
N.O. INTL ARPT PTCLDY    82  73  74 SW3       30.01R
N.O. LAKEFRONT PTCLDY    84  70  62 SW7       30.01R
N.O. DOWNTOWN*   N/A     85  71  63 S5        30.02R
RESERVE*       FAIR      77  74  88 CALM      30.01S
SLIDELL        CLOUDY    79  75  87 CALM      30.00R
BATON ROUGE    CLEAR     79  72  79 CALM      30.01S
BOOTHVILLE     CLEAR     81  74  79 CALM      30.01R
BELLE CHASSE   CLEAR     75  73  93 CALM      30.01R
BOGALUSA*      FAIR      78  67  69 N3        30.04R
GALLIANO*      CLEAR    N/A N/A N/A CALM      30.01R
NEW ROADS*     FAIR      77  72  82 MISG      30.01S
GONZALES*      FAIR      77  73  87 CALM      30.00S
HAMMOND*       PTCLDY    77  70  78 CALM      30.01S
HOUMA*         CLEAR     74  73  96 CALM      30.01S
PORT FOURCHON* CLEAR     82  72  69 CALM      30.01S

$$

LAZ041-044-053-054-260300-
SOUTHWEST LOUISIANA

CITY           SKY/WX    TMP DP  RH WIND       PRES   REMARKS
LAKE CHARLES   CLOUDY    79  76  90 CALM      30.00R
LAFAYETTE      CLEAR     78  74  87 CALM      30.00S
PATTERSON      CLEAR     76  74  93 CALM      30.01S
SALT POINT     NOT AVBL
NEW IBERIA     CLEAR     76  72  87 CALM      30.01S
CHENAULT AIRPK CLEAR     79  75  89 CALM      30.00R

$$

LAZ027-028-260300-
CENTRAL LOUISIANA

CITY           SKY/WX    TMP DP  RH WIND       PRES   REMARKS
FORT POLK      CLOUDY    78  71  81 NW5       30.01R
ALEXANDRIA INT PTCLDY    76  71  85 CALM      30.00R
ALEXANDRIA     CLEAR     73  73 100 CALM      30.01R

$$

LAZ001-002-260300-
NORTHWEST LOUISIANA

CITY           SKY/WX    TMP DP  RH WIND       PRES   REMARKS
SHREVEPORT     CLOUDY    77  71  82 SW9       30.01R
BARKSDALE AFB  CLOUDY    77  70  79 CALM      30.01R
DTN SHREVEPORT CLOUDY    79  69  71 CALM      30.01R

$$

LAZ014-016-260300-
NORTHEAST LOUISIANA

CITY           SKY/WX    TMP DP  RH WIND       PRES   REMARKS
MONROE         PTCLDY    79  72  79 NE6       30.02R
TALLULAH       CLOUDY    80  71  74 CALM      30.00S

$$




USA.gov is the U.S. government's official web portal to all federal, state and local government web resources and services.